Wind_Speed
16 13 10 8 5 2 4 12 4 5 6 16 16 31 28 31 32 36 42 42 34 32 32 21 17 17 12 9 10 12 13 12 12 12 11 10 10 10 10 9 8 7 6 6 6 5 4 4 5
17 15 12 14 11 9 8 5 4 8 15 15 18 24 27 30 30 39 44 40 30 29 29 17 18 16 11 11 16 18 17 16 17 15 17 16 13 14 12 10 9 7 6 6 5 3 3 3 1
15 15 14 14 18 13 9 10 15 13 11 17 26 24 29 31 35 39 45 32 26 28 23 16 17 13 13 17 21 22 24 24 22 21 20 21 21 20 18 18 17 16 14 11 8 4 2 5 5
18 20 18 17 12 8 8 8 9 10 14 18 23 23 27 32 34 41 36 29 28 27 17 16 14 14 17 21 24 28 30 30 28 27 26 27 26 26 26 23 19 15 14 10 9 8 5 5 3
19 21 22 20 18 15 12 11 11 15 16 19 18 21 28 33 36 41 34 25 27 23 15 15 12 16 18 22 24 27 25 28 31 31 31 27 26 28 28 26 23 20 16 12 9 8 8 7 5
12 16 20 20 20 17 16 16 16 15 16 14 17 21 27 32 36 38 33 25 22 20 14 13 10 16 18 23 24 24 27 28 28 31 30 32 33 33 32 31 31 29 23 16 13 9 8 6 6
14 14 22 22 21 19 19 17 20 20 17 20 20 23 27 34 35 34 29 24 21 17 13 11 9 14 20 21 21 23 26 26 28 31 34 31 27 31 31 33 35 36 34 28 14 10 9 7 7
20 18 18 20 19 20 20 19 16 16 18 19 19 25 27 31 30 31 25 21 18 14 10 8 10 13 19 19 19 22 24 27 28 37 35 34 33 34 39 39 38 43 50 44 36 29 22 18 13
20 23 22 21 20 20 20 19 20 21 19 20 22 24 26 29 23 26 23 19 16 10 8 7 11 14 17 19 16 18 21 23 34 35 33 32 35 37 39 41 42 49 53 56 54 47 38 32 26
26 22 24 25 23 22 21 21 19 17 20 22 23 27 29 23 18 18 18 18 14 6 7 7 10 13 15 15 16 17 19 27 35 34 37 36 37 39 40 41 42 47 50 54 60 57 59 53 52
30 28 27 25 26 24 23 21 21 22 24 24 25 29 30 19 15 11 16 17 11 3 6 8 9 13 14 11 9 13 22 33 33 30 35 36 38 42 41 39 41 41 46 51 54 56 54 52 53
35 35 33 31 31 28 26 26 27 26 26 26 26 29 28 13 10 9 16 19 9 2 6 11 10 14 16 16 18 19 25 30 28 24 33 33 38 42 41 39 41 42 45 47 50 52 54 55 55
41 41 37 36 34 32 31 30 27 28 27 29 28 24 14 12 4 10 16 19 6 2 7 15 11 16 18 18 20 23 30 23 22 23 27 31 31 36 37 39 39 39 42 45 44 48 49 51 51
41 41 41 41 38 36 34 33 32 30 29 28 25 14 13 5 5 10 16 17 6 5 9 17 16 16 19 21 22 22 26 21 18 17 21 25 26 32 34 35 37 37 39 42 41 40 40 40 42
35 41 42 41 40 39 39 35 33 31 28 26 22 11 9 5 6 12 15 15 2 8 12 19 21 13 20 21 22 23 21 21 21 17 15 16 23 27 29 30 32 33 33 33 34 36 37 37 36
30 31 36 40 40 38 37 35 32 30 25 19 12 9 7 8 9 8 12 12 6 7 14 21 23 15 17 19 20 25 25 20 14 14 13 18 22 22 26 27 29 30 31 31 32 32 31 32 34
33 35 33 32 34 36 36 33 27 21 16 13 9 7 6 8 6 4 12 8 7 5 15 24 24 19 17 19 22 22 26 24 24 21 19 21 22 21 22 25 25 27 27 27 29 30 31 34 34
42 42 34 30 27 25 26 21 19 19 16 12 9 6 7 4 3 2 10 4 7 5 14 24 27 24 19 19 22 19 21 22 22 20 19 19 22 22 21 23 23 27 31 30 30 30 31 32 33
47 44 40 33 27 23 22 18 19 18 17 16 12 10 9 5 3 1 6 3 5 5 10 21 27 25 20 17 19 17 16 17 19 17 16 18 19 18 20 19 20 21 22 26 27 27 24 27 33
52 49 47 42 36 31 27 24 23 22 19 19 18 14 10 6 7 6 2 1 3 6 8 19 23 28 25 20 18 16 14 15 14 15 12 13 14 15 16 16 16 16 19 24 26 29 27 28 32
61 57 55 50 44 38 32 28 26 24 24 23 18 16 11 9 5 7 5 2 5 2 9 15 21 23 27 23 20 17 13 12 11 13 11 10 10 10 12 13 13 15 16 20 22 26 31 29 32
67 65 62 57 50 47 40 34 32 30 28 23 22 19 15 11 8 7 10 5 1 3 9 11 21 24 23 21 22 22 17 15 12 10 9 8 7 8 8 6 8 11 14 18 22 24 28 29 32
75 72 68 64 58 52 42 39 39 34 30 27 27 21 19 14 12 8 13 10 6 7 7 8 15 24 24 21 24 23 19 16 11 9 7 6 5 5 5 4 4 9 13 15 20 22 25 27 30
83 76 75 70 65 56 49 44 43 39 39 33 30 25 22 17 14 11 15 15 11 9 9 11 11 21 25 25 26 22 19 18 14 11 7 4 2 1 2 1 2 5 11 14 18 19 21 24 26
83 83 79 77 69 56 57 50 49 48 44 40 34 28 23 19 19 16 16 18 14 9 6 11 14 19 23 25 24 24 23 22 16 13 10 7 4 3 3 2 1 4 8 12 15 18 19 22 24
86 86 83 78 73 64 64 53 52 54 52 46 39 35 28 28 26 23 19 21 21 15 10 6 11 15 22 24 24 25 26 24 20 15 14 11 8 7 6 4 2 2 6 10 14 16 17 19 22
90 88 81 85 81 72 67 62 59 58 55 50 44 39 36 35 31 27 24 21 24 24 18 14 12 14 17 18 23 25 26 26 24 19 16 14 12 10 8 8 5 3 3 9 13 15 15 17 18
97 92 93 87 81 74 72 68 61 62 60 57 51 47 45 41 35 32 29 24 24 27 23 17 14 14 16 12 19 25 25 25 25 25 20 17 16 13 13 11 8 6 3 6 11 13 14 16 17
104 99 94 89 81 79 76 71 68 67 64 62 56 55 52 47 42 37 33 29 24 22 23 25 20 20 18 19 19 25 28 28 27 27 24 22 21 17 16 14 11 9 6 5 10 11 12 13 16
109 102 99 96 85 81 81 77 75 68 73 69 62 60 56 52 46 42 35 30 29 26 22 25 26 24 23 24 24 25 28 29 30 29 27 24 22 20 17 15 13 12 8 6 8 10 10 12 15
Wind_Direction
232 224 222 215 241 188 222 307 356 11 322 359 314 314 322 330 335 338 341 351 350 343 345 346 349 0 6 31 40 38 41 45 65 67 65 67 69 55 43 37 40 43 45 53 58 49 60 82 103
215 222 214 242 232 248 256 262 303 289 286 333 332 354 343 334 330 335 341 345 346 342 348 355 3 11 34 52 63 63 64 70 72 78 80 77 64 52 54 54 56 53 52 48 51 55 49 68 91
220 214 221 227 244 227 244 247 269 281 276 271 293 325 333 341 335 335 344 344 347 343 353 4 13 36 57 72 73 70 69 72 79 81 85 75 70 64 66 60 58 55 55 54 46 32 104 104 76
237 228 226 222 234 236 243 256 265 286 269 267 290 310 334 339 336 342 344 346 349 346 2 8 31 66 73 85 78 79 73 74 77 76 75 74 71 71 68 65 60 54 43 50 55 70 97 153 122
235 238 224 229 241 257 253 262 284 269 262 288 291 311 333 337 336 341 345 344 351 357 13 16 50 71 87 93 92 80 72 68 69 73 76 81 79 74 71 66 61 55 48 49 59 78 89 106 113
226 215 216 230 242 253 257 265 267 275 295 301 306 320 333 340 337 340 344 352 359 358 22 22 56 84 99 102 85 79 63 60 63 71 85 90 84 79 76 72 61 60 53 57 66 89 103 112 104
214 218 225 236 244 254 265 238 271 282 279 287 316 320 331 333 338 341 345 0 2 4 24 26 64 103 113 106 75 68 61 61 74 89 87 80 80 78 71 71 65 58 57 63 69 76 82 110 116
219 221 231 242 248 254 262 271 285 288 282 294 317 321 327 329 335 340 352 1 353 3 29 39 77 112 115 103 81 64 66 70 88 86 81 69 77 76 71 73 67 63 62 67 68 73 79 85 97
235 230 229 243 243 251 262 271 278 282 289 304 315 319 330 325 334 339 356 351 344 359 42 67 77 118 117 97 87 66 75 89 105 79 76 74 73 70 71 74 69 68 66 63 67 68 72 75 80
235 236 236 236 244 248 256 263 272 282 291 300 305 315 316 313 326 337 0 357 333 6 62 90 77 122 126 108 84 78 92 111 106 82 72 77 67 63 74 75 72 67 68 66 69 70 69 71 69
242 237 238 242 246 250 251 259 268 276 285 295 306 313 311 307 332 347 6 354 355 6 86 113 88 120 138 121 96 98 113 124 119 83 69 74 72 65 72 74 70 69 65 64 65 62 64 66 64
242 242 239 239 242 247 256 259 264 272 280 292 301 309 310 297 333 2 14 4 2 129 114 125 105 124 120 116 109 117 126 129 118 91 67 81 71 69 67 66 66 69 64 63 59 59 56 54 54
242 241 241 241 242 247 250 259 267 272 282 288 298 302 298 299 299 10 12 0 20 138 138 133 117 137 122 115 114 130 133 138 128 92 72 77 76 73 68 65 64 66 66 61 55 54 52 51 47
240 241 243 245 245 244 249 255 261 266 275 286 290 284 289 317 248 0 2 355 348 162 160 141 135 139 124 119 118 123 150 135 124 95 82 74 76 75 71 67 68 71 69 66 60 57 53 54 51
236 238 239 239 239 242 244 251 259 265 272 279 275 268 280 224 279 328 344 344 321 163 169 148 148 151 138 125 116 112 127 149 119 108 102 71 76 82 81 76 74 70 65 63 63 60 55 53 52
233 236 238 240 240 240 243 248 253 262 266 259 246 263 228 228 295 334 347 350 141 155 170 151 155 164 147 137 127 116 114 137 137 119 115 92 84 88 85 84 76 70 67 60 57 53 49 46 44
229 234 231 233 235 238 242 245 246 241 226 227 228 235 238 263 303 17 350 350 141 153 173 160 161 161 147 141 138 128 118 117 115 110 111 98 93 93 90 80 74 70 66 63 59 56 51 43 38
227 232 231 229 229 232 237 229 220 207 210 213 217 213 230 260 218 39 357 330 157 155 178 169 167 171 157 144 142 139 125 122 115 110 102 98 99 97 98 84 77 72 71 61 55 47 42 40 32
229 232 235 234 226 229 230 214 208 209 219 212 218 215 220 219 201 90 359 341 162 139 187 172 173 174 170 159 155 151 137 128 120 113 102 97 94 99 97 88 78 70 60 46 40 38 33 29 28
227 228 233 230 228 223 220 219 216 217 218 218 221 224 212 244 196 211 312 308 168 158 181 181 172 184 185 184 174 168 156 144 125 120 104 93 94 96 98 84 70 67 56 46 45 41 37 31 28
226 226 227 230 226 223 218 218 219 219 219 222 220 226 218 227 253 197 207 208 218 231 171 192 177 178 190 194 185 186 181 160 142 130 118 104 92 89 97 79 64 56 55 43 39 30 33 32 31
227 225 227 230 228 225 218 214 220 222 219 218 219 219 226 221 233 196 194 166 196 238 185 188 186 180 185 188 187 189 192 185 169 148 135 116 95 90 89 71 56 44 41 31 33 28 23 32 30
226 226 226 226 228 229 221 216 220 222 222 218 220 214 221 222 241 209 183 166 171 232 211 187 197 184 184 184 189 195 200 197 192 172 155 141 122 95 90 72 61 47 43 25 28 25 21 28 30
226 225 226 226 224 226 225 220 220 221 222 219 221 217 223 229 234 211 198 184 165 192 200 186 204 195 187 190 196 201 199 198 197 195 196 187 184 133 110 108 84 30 28 23 17 20 23 21 28
226 224 225 226 225 220 224 220 220 223 225 222 223 220 223 229 221 217 208 198 182 183 194 195 194 199 196 198 200 202 206 203 199 206 214 225 237 263 257 229 352 16 16 16 13 12 17 20 25
226 226 224 224 223 218 221 218 222 221 222 222 219 222 216 221 221 222 207 204 203 199 203 219 206 200 203 204 202 208 209 212 214 219 222 227 246 257 264 255 224 341 354 8 7 6 9 15 17
226 227 225 222 222 219 219 218 220 221 223 221 218 220 218 222 222 217 222 209 209 208 202 201 208 219 217 214 209 211 214 216 221 230 235 233 244 255 259 261 240 224 336 355 355 355 358 3 8
225 223 224 223 221 217 218 219 218 221 222 220 216 215 219 219 219 217 221 223 210 222 219 215 214 213 223 230 227 223 220 220 223 232 238 240 244 254 259 252 243 246 285 338 344 345 349 353 356
223 222 223 223 218 215 215 215 220 217 220 221 217 216 216 217 216 219 220 229 219 219 239 219 219 215 212 215 224 225 225 223 225 230 236 240 244 247 252 255 243 241 264 315 329 330 337 345 343
222 222 220 220 217 216 215 213 221 216 219 221 216 217 217 217 215 218 219 227 225 218 227 230 214 218 216 216 220 223 224 223 224 227 230 236 241 240 247 255 249 246 252 281 308 312 326 335 334
Height
11013 11014 11016 11017 11018 11018 11018 11017 11016 11014 11014 11014 11012 11009 11007 11005 11002 10999 10992 10986 10982 10978 10973 10967 10963 10960 10958 10954 10950 10946 10943 10941 10939 10938 10937 10936 10936 10934 10932 10931 10929 10928 10927 10926 10926 10927 10927 10928 10928
11011 11013 11016 11017 11017 11017 11017 11017 11016 11016 11014 11014 11009 11008 11006 11004 11000 10996 10990 10985 10980 10976 10972 10967 10963 10960 10957 10954 10951 10948 10946 10943 10942 10941 10941 10939 10938 10935 10934 10931 10929 10929 10927 10925 10924 10924 10924 10926 10926
11011 11012 11014 11015 11016 11016 11016 11016 11015 11015 11015 11013 11009 11008 11008 11004 10999 10994 10989 10984 10979 10975 10970 10967 10964 10962 10959 10956 10953 10952 10950 10948 10946 10944 10943 10941 10940 10937 10935 10933 10931 10930 10928 10926 10925 10925 10925 10925 10925
11009 11011 11012 11013 11015 11015 11015 11014 11014 11015 11014 11011 11010 11010 11007 11003 10998 10993 10988 10983 10978 10974 10970 10968 10967 10965 10962 10959 10959 10957 10955 10952 10950 10947 10945 10944 10942 10939 10937 10936 10935 10932 10930 10928 10926 10924 10924 10925 10926
11007 11008 11010 11012 11012 11013 11014 11013 11014 11014 11013 11012 11010 11009 11006 11002 10997 10993 10987 10982 10979 10975 10971 10969 10968 10966 10964 10964 10963 10962 10960 10957 10954 10951 10949 10948 10947 10944 10941 10940 10938 10935 10932 10928 10926 10924 10923 10924 10925
11005 11006 11009 11010 11010 11011 11011 11012 11012 11012 11012 11010 11009 11007 11004 11001 10996 10992 10986 10982 10979 10976 10973 10971 10970 10969 10967 10968 10966 10964 10962 10960 10958 10955 10954 10953 10951 10948 10946 10944 10942 10939 10934 10929 10926 10924 10924 10925 10925
11003 11005 11006 11007 11008 11009 11009 11010 11009 11010 11010 11009 11008 11006 11003 10999 10996 10991 10986 10983 10980 10977 10975 10973 10973 10972 10970 10970 10969 10967 10966 10964 10962 10961 10960 10958 10955 10953 10951 10949 10947 10942 10935 10931 10927 10925 10924 10924 10925
11000 11002 11003 11004 11006 11007 11006 11007 11007 11007 11007 11008 11006 11004 11001 10998 10995 10991 10987 10983 10981 10979 10977 10975 10975 10973 10972 10972 10971 10970 10970 10969 10969 10968 10965 10963 10961 10958 10956 10954 10951 10947 10941 10936 10930 10928 10927 10926 10927
10996 10999 11000 11001 11003 11003 11003 11004 11004 11004 11005 11005 11004 11002 10999 10996 10993 10991 10987 10984 10982 10980 10978 10977 10976 10975 10975 10975 10975 10975 10974 10975 10974 10973 10971 10969 10966 10963 10960 10959 10956 10953 10949 10946 10938 10935 10932 10931 10931
10992 10995 10997 10998 10999 11001 11001 11002 11002 11002 11003 11002 11001 10999 10997 10994 10992 10991 10987 10984 10982 10981 10979 10979 10977 10977 10977 10978 10979 10979 10978 10979 10978 10977 10976 10973 10969 10967 10964 10963 10961 10959 10956 10953 10948 10945 10942 10941 10938
10987 10990 10992 10994 10995 10996 10998 10999 11000 11000 11000 10999 10998 10996 10994 10992 10991 10990 10987 10984 10981 10981 10980 10981 10981 10980 10981 10982 10982 10983 10983 10983 10982 10981 10980 10978 10975 10971 10969 10968 10966 10964 10962 10959 10955 10952 10950 10949 10946
10981 10982 10985 10988 10989 10992 10993 10995 10996 10997 10997 10997 10996 10994 10992 10990 10990 10989 10987 10984 10982 10982 10982 10982 10984 10984 10984 10986 10986 10986 10987 10987 10987 10986 10985 10984 10980 10976 10975 10973 10971 10969 10967 10964 10960 10957 10955 10951 10947
10972 10974 10978 10981 10984 10987 10988 10990 10992 10992 10993 10994 10993 10991 10990 10990 10989 10988 10986 10984 10983 10983 10984 10984 10986 10987 10988 10988 10988 10988 10990 10991 10991 10992 10990 10988 10986 10983 10981 10978 10977 10974 10972 10969 10966 10962 10960 10957 10954
10963 10967 10970 10973 10977 10981 10982 10985 10987 10989 10990 10991 10990 10989 10989 10988 10989 10987 10985 10984 10983 10984 10985 10986 10987 10990 10991 10991 10992 10992 10993 10994 10996 10996 10996 10994 10993 10989 10987 10986 10984 10982 10979 10977 10975 10972 10971 10968 10965
10953 10957 10962 10965 10969 10973 10976 10980 10982 10985 10987 10988 10987 10987 10987 10987 10987 10986 10984 10983 10982 10983 10986 10987 10988 10991 10993 10995 10995 10994 10995 10997 10999 11000 11000 10999 10998 10995 10994 10993 10990 10987 10985 10983 10982 10981 10978 10974 10973
10947 10950 10953 10957 10962 10966 10971 10974 10978 10981 10983 10984 10984 10985 10985 10985 10986 10985 10983 10981 10981 10983 10986 10987 10990 10993 10995 10997 10999 10998 10998 11000 11002 11003 11003 11003 11002 10999 10999 10998 10995 10992 10990 10989 10988 10986 10984 10981 10977
10941 10941 10946 10950 10955 10959 10963 10969 10973 10976 10978 10980 10981 10982 10983 10984 10984 10983 10981 10980 10981 10983 10986 10988 10991 10994 10997 10999 11002 11002 11001 11003 11004 11006 11006 11006 11006 11005 11004 11002 11000 10997 10995 10994 10993 10991 10990 10986 10983
10932 10933 10940 10946 10951 10955 10958 10964 10968 10972 10974 10977 10978 10979 10981 10982 10982 10982 10981 10980 10981 10983 10986 10988 10990 10994 10998 11001 11003 11005 11005 11006 11007 11008 11009 11009 11008 11009 11008 11006 11004 11002 11000 11000 10999 10996 10994 10991 10988
10925 10929 10934 10940 10948 10952 10955 10960 10964 10967 10970 10973 10975 10976 10979 10980 10981 10981 10981 10980 10982 10983 10986 10988 10991 10994 10998 11002 11005 11007 11009 11009 11009 11011 11012 11011 11011 11010 11009 11009 11007 11006 11005 11004 11002 11000 10998 10995 10991
10916 10920 10925 10931 10939 10945 10951 10955 10959 10962 10966 10969 10971 10973 10976 10978 10979 10980 10980 10980 10982 10983 10986 10988 10991 10994 10997 11001 11005 11008 11011 11012 11012 11013 11014 11014 11014 11013 11013 11012 11011 11010 11009 11007 11006 11004 11000 10998 10995
10902 10907 10913 10920 10929 10937 10945 10951 10954 10957 10961 10964 10968 10971 10973 10976 10977 10978 10979 10979 10981 10983 10985 10988 10990 10993 10997 11000 11004 11008 11012 11014 11014 11015 11016 11016 11016 11015 11015 11015 11013 11013 11012 11010 11008 11006 11004 11001 10998
10888 10894 10902 10911 10920 10927 10936 10944 10947 10951 10956 10961 10964 10968 10970 10973 10975 10976 10977 10978 10979 10983 10984 10986 10989 10992 10997 11000 11004 11007 11011 11014 11015 11016 11017 11017 11018 11017 11017 11017 11016 11015 11014 11013 11011 11008 11008 11004 11002
10867 10881 10890 10899 10910 10916 10931 10937 10940 10946 10952 10956 10958 10963 10966 10969 10973 10974 10975 10976 10978 10981 10984 10985 10988 10990 10994 10999 11002 11006 11009 11014 11016 11017 11018 11018 11020 11020 11019 11019 11019 11019 11018 11016 11014 11012 11010 11008 11005
10846 10866 10875 10887 10896 10909 10920 10929 10934 10940 10943 10949 10954 10959 10962 10965 10970 10972 10973 10974 10975 10978 10981 10983 10986 10989 10992 10996 11000 11005 11008 11012 11015 11016 11018 11019 11020 11021 11020 11021 11022 11022 11020 11019 11017 11015 11013 11010 11008
10836 10847 10859 10872 10888 10905 10904 10916 10923 10927 10934 10942 10948 10954 10959 10962 10966 10969 10970 10972 10974 10976 10979 10981 10984 10987 10990 10993 10998 11002 11006 11009 11012 11015 11017 11018 11019 11021 11021 11021 11022 11023 11023 11021 11020 11017 11015 11012 11011
10818 10826 10843 10860 10874 10886 10891 10908 10911 10915 10922 10931 10941 10947 10953 10956 10960 10964 10967 10968 10972 10974 10976 10979 10981 10984 10987 10990 10995 11000 11004 11008 11010 11013 11016 11017 11019 11020 11021 11021 11021 11023 11024 11023 11021 11019 11017 11015 11013
10797 10810 10832 10836 10851 10871 10885 10889 10894 10904 10912 10923 10932 10939 10944 10948 10952 10958 10963 10965 10968 10970 10973 10976 10979 10982 10984 10987 10991 10996 11001 11005 11009 11012 11014 11016 11018 11020 11020 11020 11020 11022 11023 11023 11022 11020 11019 11016 11015
10770 10790 10794 10816 10839 10860 10869 10877 10883 10892 10900 10909 10919 10927 10932 10940 10946 10951 10955 10959 10963 10967 10969 10973 10976 10979 10982 10986 10989 10992 10996 11001 11006 11009 11012 11013 11015 11018 11020 11020 11020 11021 11022 11022 11022 11021 11019 11017 11016
10744 10763 10781 10801 10823 10840 10851 10864 10863 10879 10885 10896 10908 10913 10920 10929 10936 10943 10948 10953 10958 10963 10966 10969 10972 10975 10978 10982 10985 10988 10992 10997 11001 11004 11007 11009 11012 11015 11017 11018 11019 11020 11021 11021 11022 11021 11020 11018 11016
10724 10746 10760 10775 10806 10823 10833 10846 10847 10867 10868 10877 10893 10901 10911 10918 10927 10934 10943 10950 10953 10957 10961 10964 10967 10970 10973 10976 10979 10983 10988 10992 10995 10999 11002 11005 11008 11011 11013 11015 11017 11017 11018 11019 11020 11021 11020 11019 11017